Theta_e
312 312 313 314 314 315 314 314 314 313 316 316 313 315 316 318 321 326 324 325 327 333 334 333 328 328 332 330
309 310 313 314 314 313 313 313 313 312 316 311 315 315 316 316 317 321 324 325 327 331 334 327 327 331 331 335
311 313 313 312 312 312 312 312 312 317 317 315 316 314 314 316 318 317 321 325 327 330 333 331 332 332 336 337
311 311 311 311 312 313 312 316 316 316 316 318 317 315 315 317 318 319 323 325 327 332 332 333 339 335 333 336
311 311 311 317 317 319 316 316 317 315 315 316 317 317 318 318 319 322 325 325 330 334 330 332 334 334 335 336
310 311 311 318 314 315 317 317 318 317 315 314 315 316 316 317 321 324 325 327 331 331 331 331 332 333 335 337
311 311 315 316 316 317 319 320 319 318 317 317 317 317 317 318 321 323 326 330 329 330 331 333 333 333 332 333
319 317 319 318 317 317 323 319 318 317 317 319 319 317 317 319 321 323 326 328 327 329 334 333 331 332 330 330
313 317 318 316 316 318 323 319 318 317 319 320 318 317 318 319 321 323 327 329 326 328 330 331 330 329 325 328
317 319 315 314 317 326 322 320 318 319 319 320 319 318 317 319 320 322 323 323 322 326 327 322 322 323 323 323
318 315 314 316 324 326 320 320 319 320 320 321 320 317 318 319 321 323 324 321 322 321 322 323 322 323 323 326
309 312 315 320 326 321 321 319 318 318 321 320 320 319 318 321 320 321 325 324 322 321 322 322 322 322 322 323
312 313 318 324 321 319 319 320 320 320 323 321 320 320 320 321 318 316 320 325 320 317 317 318 318 322 320 320
314 316 319 321 320 317 317 321 323 320 322 322 320 321 321 318 319 315 315 319 318 318 316 317 317 320 318 320
314 318 319 319 318 317 316 318 320 322 322 324 321 321 321 317 315 317 316 317 319 317 317 318 320 318 319 318
317 318 320 318 315 317 316 316 317 320 321 318 319 320 320 318 312 313 318 316 318 318 316 313 313 316 319 319
316 319 320 319 316 316 317 317 317 318 318 320 321 320 319 312 312 315 315 314 317 316 315 314 312 314 317 317
Wind_Speed
13 11 11 11 12 14 16 17 18 20 19 32 16 14 10 11 7 15 19 19 19 17 16 5 5 4 2 4
13 10 11 13 14 16 18 18 18 18 16 20 13 16 17 16 9 13 19 15 17 16 14 8 5 4 2 3
11 10 11 12 13 16 17 16 16 9 18 10 16 18 17 18 12 14 15 11 12 13 11 7 6 6 6 8
10 10 12 13 9 16 9 10 12 12 16 11 11 12 15 13 14 15 16 14 11 10 9 10 10 11 13 9
8 10 8 9 10 3 4 11 9 12 25 20 14 8 13 15 15 17 11 19 10 13 16 17 16 14 5 5
4 4 8 4 8 8 15 17 24 25 24 20 12 11 14 13 16 13 16 8 14 15 17 16 17 13 8 10
4 6 10 11 10 12 7 11 9 10 8 5 10 13 11 16 9 13 14 12 12 18 15 13 13 10 6 4
6 6 6 6 11 7 4 5 4 3 2 5 2 8 13 8 8 15 14 13 6 11 5 8 5 8 10 2
11 6 8 12 8 1 4 4 4 2 1 3 2 4 3 6 8 12 9 4 6 2 7 5 8 2 5 5
11 11 14 17 4 3 4 3 3 2 4 6 2 3 4 7 12 10 3 2 6 4 1 6 6 9 5 4
3 14 17 9 2 5 9 11 7 1 7 0 3 6 7 7 4 3 5 6 5 2 9 5 3 6 7 3
10 11 12 4 2 6 2 5 8 8 7 5 2 5 11 7 7 4 6 6 5 6 4 1 4 7 3 2
7 6 5 5 4 3 5 13 13 9 9 9 7 4 9 6 4 6 3 5 4 4 5 3 4 5 3 2
9 3 5 9 4 2 3 9 9 8 4 14 8 3 5 2 3 3 5 5 5 1 2 2 1 4 3 1
6 6 5 10 3 3 3 4 6 12 10 2 3 3 3 1 4 4 3 6 2 3 3 5 3 3 2 3
6 8 7 2 2 4 4 4 4 7 2 4 4 4 2 4 5 7 3 2 4 3 3 3 4 4 3 7
5 8 13 4 3 2 3 2 3 1 3 3 4 2 4 1 3 4 4 6 3 4 3 1 1 3 3 3
Wind_Direction
308 297 297 301 296 295 298 300 305 306 287 260 263 237 248 263 239 221 216 220 223 240 211 263 147 13 255 82
319 304 300 305 303 301 300 301 301 300 271 300 281 259 238 255 241 223 221 224 225 239 192 131 118 179 252 161
328 316 311 311 308 296 294 295 294 262 281 315 254 251 228 238 227 218 216 225 197 207 189 190 177 187 197 215
322 325 330 321 322 303 313 315 265 285 263 341 335 233 223 211 217 198 192 207 199 198 185 199 201 197 211 238
346 358 346 8 353 333 295 246 210 249 293 315 323 226 198 202 206 191 189 196 205 204 192 203 226 220 186 219
10 340 313 4 12 321 304 277 256 260 270 285 298 212 175 189 202 192 213 185 209 207 219 209 218 237 209 188
318 319 324 302 318 338 280 304 242 251 267 249 247 148 184 210 202 204 203 191 204 234 213 214 208 223 252 202
340 332 339 341 317 306 280 161 197 175 217 258 267 98 180 232 190 209 224 220 0 210 212 171 214 213 207 228
295 320 281 312 332 20 346 11 95 176 14 312 207 161 205 277 272 212 202 187 173 203 187 193 203 101 86 174
310 311 320 334 4 265 38 67 358 200 172 242 196 126 183 254 291 265 59 54 58 146 163 64 32 130 145 106
246 306 326 340 308 349 4 349 352 18 263 182 299 171 189 217 220 126 200 153 90 54 141 95 68 230 157 157
285 295 331 269 261 321 311 217 350 315 33 331 269 178 192 218 229 294 162 196 157 166 181 5 185 204 253 260
304 301 292 262 10 355 27 51 15 354 356 308 277 252 192 243 41 18 295 192 93 72 20 12 352 150 212 2
250 189 263 274 5 38 116 133 165 174 167 273 270 322 179 5 340 42 343 314 116 26 101 276 82 19 342 117
228 224 254 288 351 101 166 231 289 194 226 245 33 297 25 61 3 322 305 306 205 132 159 211 147 148 213 243
237 226 253 26 329 315 180 256 253 275 115 132 266 259 48 60 352 324 304 86 304 131 87 53 11 333 294 191
266 259 274 202 210 262 254 293 278 263 13 264 265 25 78 38 1 344 12 349 273 122 155 150 63 259 202 298